owner,sensor,date,latitude,longitude,vertical_datum,direction_of_sea_water_velocity,sea_water_speed,upward_sea_water_velocity,qcFlag 
TABS,ioos:station:wmo:42046:1,2004-06-01T00:00:00Z,27.8903,-94.0367,2.0,155.6150538,17.63298046,-99999.0,'11111222,11111222,99999999' 
TABS,ioos:station:wmo:42046:1,2004-06-01T00:30:00Z,27.8903,-94.0367,2.0,167.4495762,17.39565463,-99999.0,'11111222,11111222,99999999' 
TABS,ioos:station:wmo:42046:1,2004-06-01T01:00:00Z,27.8903,-94.0367,2.0,168.9571581,15.97579419,-99999.0,'11111222,11111222,99999999' 
TABS,ioos:station:wmo:42046:1,2004-06-01T01:30:00Z,27.8903,-94.0367,2.0,162.3872529,11.23672995,-99999.0,'11111222,11111222,99999999' 
TABS,ioos:station:wmo:42046:1,2004-06-01T02:00:00Z,27.8903,-94.0367,2.0,163.4555099,8.147300166,-99999.0,'11133222,11111222,99999999' 
TABS,ioos:station:wmo:42046:1,2004-06-01T02:30:00Z,27.8903,-94.0367,2.0,149.0104238,3.826133819,-99999.0,'11133222,11111222,99999999' 
TABS,ioos:station:wmo:42046:1,2004-06-01T03:00:00Z,27.8903,-94.0367,2.0,302.0269185,2.866234464,-99999.0,'11133222,11111222,99999999' 
TABS,ioos:station:wmo:42046:1,2004-06-01T03:30:00Z,27.8903,-94.0367,2.0,327.5879796,7.462573283,-99999.0,'11133222,11111222,99999999' 
TABS,ioos:station:wmo:42046:1,2004-06-01T04:00:00Z,27.8903,-94.0367,2.0,347.0446567,9.902065441,-99999.0,'11133222,11111222,99999999' 
TABS,ioos:station:wmo:42046:1,2004-06-01T04:30:00Z,27.8903,-94.0367,2.0,355.2923692,13.64603972,-99999.0,'11111222,11111222,99999999' 
TABS,ioos:station:wmo:42046:1,2004-06-01T05:00:00Z,27.8903,-94.0367,2.0,358.9720199,17.83287133,-99999.0,'11111222,11111222,99999999' 
TABS,ioos:station:wmo:42046:1,2004-06-01T05:30:00Z,27.8903,-94.0367,2.0,3.836131037,20.92688223,-99999.0,'11111222,11111222,99999999' 
TABS,ioos:station:wmo:42046:1,2004-06-01T06:00:00Z,27.8903,-94.0367,2.0,2.466734799,24.86303481,-99999.0,'11111222,11111222,99999999' 
TABS,ioos:station:wmo:42046:1,2004-06-01T06:30:00Z,27.8903,-94.0367,2.0,6.29854239,25.70515318,-99999.0,'11111222,11111222,99999999' 
TABS,ioos:station:wmo:42046:1,2004-06-01T07:00:00Z,27.8903,-94.0367,2.0,14.78835735,26.79764355,-99999.0,'11111222,11111222,99999999' 
TABS,ioos:station:wmo:42046:1,2004-06-01T07:30:00Z,27.8903,-94.0367,2.0,23.14804761,26.71036503,-99999.0,'11111222,11111222,99999999' 
TABS,ioos:station:wmo:42046:1,2004-06-01T08:00:00Z,27.8903,-94.0367,2.0,31.54677917,25.28705993,-99999.0,'11111222,11111222,99999999' 
TABS,ioos:station:wmo:42046:1,2004-06-01T08:30:00Z,27.8903,-94.0367,2.0,40.86275841,29.01041192,-99999.0,'11111222,11111222,99999999' 
TABS,ioos:station:wmo:42046:1,2004-06-01T09:00:00Z,27.8903,-94.0367,2.0,45.96969614,28.83287187,-99999.0,'11111222,11111222,99999999' 
TABS,ioos:station:wmo:42046:1,2004-06-01T09:30:00Z,27.8903,-94.0367,2.0,52.05737744,27.45281224,-99999.0,'11111222,11111222,99999999' 
TABS,ioos:station:wmo:42046:1,2004-06-01T10:00:00Z,27.8903,-94.0367,2.0,60.82686715,33.31614774,-99999.0,'11111222,11111222,99999999' 
TABS,ioos:station:wmo:42046:1,2004-06-01T10:30:00Z,27.8903,-94.0367,2.0,67.37359026,33.40076945,-99999.0,'11111222,11111222,99999999' 
TABS,ioos:station:wmo:42046:1,2004-06-01T11:00:00Z,27.8903,-94.0367,2.0,71.42588667,31.23707093,-99999.0,'11111222,11111222,99999999' 
TABS,ioos:station:wmo:42046:1,2004-06-01T11:30:00Z,27.8903,-94.0367,2.0,76.88927197,29.58107841,-99999.0,'11111222,11111222,99999999' 
TABS,ioos:station:wmo:42046:1,2004-06-01T12:00:00Z,27.8903,-94.0367,2.0,78.83461744,27.98978385,-99999.0,'11111222,11111222,99999999' 
TABS,ioos:station:wmo:42046:1,2004-06-01T12:30:00Z,27.8903,-94.0367,2.0,84.2995324,28.18940404,-99999.0,'11111222,11111222,99999999' 
TABS,ioos:station:wmo:42046:1,2004-06-01T13:00:00Z,27.8903,-94.0367,2.0,88.52301792,28.70953848,-99999.0,'11111222,11111222,99999999' 
TABS,ioos:station:wmo:42046:1,2004-06-01T13:30:00Z,27.8903,-94.0367,2.0,89.9585565,27.65000723,-99999.0,'11111222,11111222,99999999' 
TABS,ioos:station:wmo:42046:1,2004-06-01T14:00:00Z,27.8903,-94.0367,2.0,93.68951315,29.68151782,-99999.0,'11111222,11111222,99999999' 
TABS,ioos:station:wmo:42046:1,2004-06-01T14:30:00Z,27.8903,-94.0367,2.0,99.50162655,31.13717553,-99999.0,'11111222,11111222,99999999' 
TABS,ioos:station:wmo:42046:1,2004-06-01T15:00:00Z,27.8903,-94.0367,2.0,105.1135715,30.1840438,-99999.0,'11111222,11111222,99999999' 
TABS,ioos:station:wmo:42046:1,2004-06-01T15:30:00Z,27.8903,-94.0367,2.0,110.6166496,32.06344024,-99999.0,'11111222,11111222,99999999' 
TABS,ioos:station:wmo:42046:1,2004-06-01T16:00:00Z,27.8903,-94.0367,2.0,118.7494842,31.56043884,-99999.0,'11111222,11111222,99999999' 
TABS,ioos:station:wmo:42046:1,2004-06-01T16:30:00Z,27.8903,-94.0367,2.0,122.7238083,33.38937855,-99999.0,'11111222,11111222,99999999' 
TABS,ioos:station:wmo:42046:1,2004-06-01T17:00:00Z,27.8903,-94.0367,2.0,129.9978544,35.84540696,-99999.0,'11111222,11111222,99999999' 
TABS,ioos:station:wmo:42046:1,2004-06-01T17:30:00Z,27.8903,-94.0367,2.0,137.5942586,35.92956721,-99999.0,'11111222,11111222,99999999' 
TABS,ioos:station:wmo:42046:1,2004-06-01T18:00:00Z,27.8903,-94.0367,2.0,142.6934972,35.70503606,-99999.0,'11111222,11111222,99999999' 
TABS,ioos:station:wmo:42046:1,2004-06-01T18:30:00Z,27.8903,-94.0367,2.0,145.3805882,39.1642107,-99999.0,'11111222,11111222,99999999' 
TABS,ioos:station:wmo:42046:1,2004-06-01T19:00:00Z,27.8903,-94.0367,2.0,149.2509424,35.67538647,-99999.0,'11111222,11111222,99999999' 
TABS,ioos:station:wmo:42046:1,2004-06-01T19:30:00Z,27.8903,-94.0367,2.0,155.4867505,37.71982105,-99999.0,'11111222,11111222,99999999' 
TABS,ioos:station:wmo:42046:1,2004-06-01T20:00:00Z,27.8903,-94.0367,2.0,162.1174033,37.71191456,-99999.0,'11111222,11111222,99999999' 
TABS,ioos:station:wmo:42046:1,2004-06-01T20:30:00Z,27.8903,-94.0367,2.0,170.135831,40.33628267,-99999.0,'11111222,11111222,99999999' 
TABS,ioos:station:wmo:42046:1,2004-06-01T21:00:00Z,27.8903,-94.0367,2.0,180.6808945,42.90303136,-99999.0,'11111222,11111222,99999999' 
TABS,ioos:station:wmo:42046:1,2004-06-01T21:30:00Z,27.8903,-94.0367,2.0,186.048902,42.60724117,-99999.0,'11111222,11111222,99999999' 
TABS,ioos:station:wmo:42046:1,2004-06-01T22:00:00Z,27.8903,-94.0367,2.0,191.4561769,42.19060203,-99999.0,'11111222,11111222,99999999' 
TABS,ioos:station:wmo:42046:1,2004-06-01T22:30:00Z,27.8903,-94.0367,2.0,199.9345582,41.56024302,-99999.0,'11111222,11111222,99999999' 
TABS,ioos:station:wmo:42046:1,2004-06-01T23:00:00Z,27.8903,-94.0367,2.0,207.6617049,42.28284995,-99999.0,'11111222,11111222,99999999' 
TABS,ioos:station:wmo:42046:1,2004-06-01T23:30:00Z,27.8903,-94.0367,2.0,217.5674183,39.90495959,-99999.0,'11111222,11111222,99999999' 
TABS,ioos:station:wmo:42046:1,2004-06-02T00:00:00Z,27.8903,-94.0367,2.0,224.0856906,39.00897333,-99999.0,'11111222,11111222,99999999' 
TABS,ioos:station:wmo:42046:1,2004-06-02T00:30:00Z,27.8903,-94.0367,2.0,235.6239546,37.54757116,-99999.0,'11111222,11111222,99999999' 
TABS,ioos:station:wmo:42046:1,2004-06-02T01:00:00Z,27.8903,-94.0367,2.0,246.4746841,35.50058309,-99999.0,'11111222,11111222,99999999' 
TABS,ioos:station:wmo:42046:1,2004-06-02T01:30:00Z,27.8903,-94.0367,2.0,257.0470333,29.62374892,-99999.0,'11111222,11111222,99999999' 
TABS,ioos:station:wmo:42046:1,2004-06-02T02:00:00Z,27.8903,-94.0367,2.0,273.6189812,37.2342329,-99999.0,'11111222,11111222,99999999' 
TABS,ioos:station:wmo:42046:1,2004-06-02T02:30:00Z,27.8903,-94.0367,2.0,281.8215742,42.41964757,-99999.0,'11111222,11111222,99999999' 
TABS,ioos:station:wmo:42046:1,2004-06-02T03:00:00Z,27.8903,-94.0367,2.0,289.8022085,36.45562371,-99999.0,'11111222,11111222,99999999' 
TABS,ioos:station:wmo:42046:1,2004-06-02T03:30:00Z,27.8903,-94.0367,2.0,294.415724,36.48252732,-99999.0,'11111222,11111222,99999999' 
TABS,ioos:station:wmo:42046:1,2004-06-02T04:00:00Z,27.8903,-94.0367,2.0,296.2649966,36.67649111,-99999.0,'11111222,11111222,99999999' 
TABS,ioos:station:wmo:42046:1,2004-06-02T04:30:00Z,27.8903,-94.0367,2.0,305.1797868,36.81402179,-99999.0,'11111222,11111222,99999999' 
TABS,ioos:station:wmo:42046:1,2004-06-02T05:00:00Z,27.8903,-94.0367,2.0,310.4607372,35.28926891,-99999.0,'11111222,11111222,99999999' 
TABS,ioos:station:wmo:42046:1,2004-06-02T05:30:00Z,27.8903,-94.0367,2.0,316.3696719,31.95621066,-99999.0,'11111222,11111222,99999999' 
TABS,ioos:station:wmo:42046:1,2004-06-02T06:00:00Z,27.8903,-94.0367,2.0,322.5464518,32.57569186,-99999.0,'11111222,11111222,99999999' 
TABS,ioos:station:wmo:42046:1,2004-06-02T06:30:00Z,27.8903,-94.0367,2.0,331.2364686,38.46632943,-99999.0,'11111222,11111222,99999999' 
TABS,ioos:station:wmo:42046:1,2004-06-02T07:00:00Z,27.8903,-94.0367,2.0,337.271239,40.37545789,-99999.0,'11111222,11111222,99999999' 
TABS,ioos:station:wmo:42046:1,2004-06-02T07:30:00Z,27.8903,-94.0367,2.0,342.1934429,35.4797252,-99999.0,'11111222,11111222,99999999' 
TABS,ioos:station:wmo:42046:1,2004-06-02T08:00:00Z,27.8903,-94.0367,2.0,352.4200318,36.69063232,-99999.0,'11111222,11111222,99999999' 
TABS,ioos:station:wmo:42046:1,2004-06-02T08:30:00Z,27.8903,-94.0367,2.0,1.640687444,37.72546222,-99999.0,'11111222,11111222,99999999' 
TABS,ioos:station:wmo:42046:1,2004-06-02T09:00:00Z,27.8903,-94.0367,2.0,9.500491561,37.20021102,-99999.0,'11111222,11111222,99999999' 
TABS,ioos:station:wmo:42046:1,2004-06-02T09:30:00Z,27.8903,-94.0367,2.0,19.52079659,40.22190572,-99999.0,'11111222,11111222,99999999' 
TABS,ioos:station:wmo:42046:1,2004-06-02T10:00:00Z,27.8903,-94.0367,2.0,20.86875079,39.69392523,-99999.0,'11111222,11111222,99999999' 
TABS,ioos:station:wmo:42046:1,2004-06-02T10:30:00Z,27.8903,-94.0367,2.0,26.3253117,40.58946169,-99999.0,'11111222,11111222,99999999' 
TABS,ioos:station:wmo:42046:1,2004-06-02T11:00:00Z,27.8903,-94.0367,2.0,35.82223072,38.1703825,-99999.0,'11111222,11111222,99999999' 
TABS,ioos:station:wmo:42046:1,2004-06-02T11:30:00Z,27.8903,-94.0367,2.0,46.12817486,36.63523168,-99999.0,'11111222,11111222,99999999' 
TABS,ioos:station:wmo:42046:1,2004-06-02T12:00:00Z,27.8903,-94.0367,2.0,49.45497916,36.50507499,-99999.0,'11111222,11111222,99999999' 
TABS,ioos:station:wmo:42046:1,2004-06-02T12:30:00Z,27.8903,-94.0367,2.0,55.63890161,40.25458111,-99999.0,'11111222,11111222,99999999' 
TABS,ioos:station:wmo:42046:1,2004-06-02T13:00:00Z,27.8903,-94.0367,2.0,62.43722848,41.86106783,-99999.0,'11111222,11111222,99999999' 
TABS,ioos:station:wmo:42046:1,2004-06-02T13:30:00Z,27.8903,-94.0367,2.0,68.64352674,41.13461438,-99999.0,'11111222,11111222,99999999' 
TABS,ioos:station:wmo:42046:1,2004-06-02T14:00:00Z,27.8903,-94.0367,2.0,79.72677695,42.16598748,-99999.0,'11111222,11111222,99999999' 
TABS,ioos:station:wmo:42046:1,2004-06-02T14:30:00Z,27.8903,-94.0367,2.0,83.86566762,42.11112561,-99999.0,'11111222,11111222,99999999' 
TABS,ioos:station:wmo:42046:1,2004-06-02T15:00:00Z,27.8903,-94.0367,2.0,93.33723201,42.60224525,-99999.0,'11111222,11111222,99999999' 
TABS,ioos:station:wmo:42046:1,2004-06-02T15:30:00Z,27.8903,-94.0367,2.0,98.81442125,42.74482542,-99999.0,'11111222,11111222,99999999' 
TABS,ioos:station:wmo:42046:1,2004-06-02T16:00:00Z,27.8903,-94.0367,2.0,98.6844185,45.16785251,-99999.0,'11111222,11111222,99999999' 
TABS,ioos:station:wmo:42046:1,2004-06-02T16:30:00Z,27.8903,-94.0367,2.0,104.5913719,45.80742844,-99999.0,'11111222,11111222,99999999' 
TABS,ioos:station:wmo:42046:1,2004-06-02T17:00:00Z,27.8903,-94.0367,2.0,107.7455529,47.31109806,-99999.0,'11111222,11111222,99999999' 
TABS,ioos:station:wmo:42046:1,2004-06-02T17:30:00Z,27.8903,-94.0367,2.0,110.5987159,54.942641,-99999.0,'11111222,11111222,99999999' 
TABS,ioos:station:wmo:42046:1,2004-06-02T18:00:00Z,27.8903,-94.0367,2.0,119.1364327,55.72078427,-99999.0,'11111222,11111222,99999999' 
TABS,ioos:station:wmo:42046:1,2004-06-02T18:30:00Z,27.8903,-94.0367,2.0,125.4027758,53.35548894,-99999.0,'11111222,11111222,99999999' 
TABS,ioos:station:wmo:42046:1,2004-06-02T19:00:00Z,27.8903,-94.0367,2.0,137.180501,52.40627825,-99999.0,'11111222,11111222,99999999' 
TABS,ioos:station:wmo:42046:1,2004-06-02T19:30:00Z,27.8903,-94.0367,2.0,138.4968294,57.61627287,-99999.0,'11111222,11111222,99999999' 
TABS,ioos:station:wmo:42046:1,2004-06-02T20:00:00Z,27.8903,-94.0367,2.0,146.5293028,59.36445064,-99999.0,'11111222,11111222,99999999' 
TABS,ioos:station:wmo:42046:1,2004-06-02T20:30:00Z,27.8903,-94.0367,2.0,144.5061521,62.1239189,-99999.0,'11111222,11111222,99999999' 
TABS,ioos:station:wmo:42046:1,2004-06-02T21:00:00Z,27.8903,-94.0367,2.0,159.8300814,61.10740135,-99999.0,'11111222,11111222,99999999' 
TABS,ioos:station:wmo:42046:1,2004-06-02T21:30:00Z,27.8903,-94.0367,2.0,177.808287,53.60921003,-99999.0,'11111222,11111222,99999999' 
TABS,ioos:station:wmo:42046:1,2004-06-02T22:00:00Z,27.8903,-94.0367,2.0,192.749383,50.65906138,-99999.0,'11111222,11111222,99999999' 
TABS,ioos:station:wmo:42046:1,2004-06-02T22:30:00Z,27.8903,-94.0367,2.0,199.9454643,47.13748508,-99999.0,'11111222,11111222,99999999' 
TABS,ioos:station:wmo:42046:1,2004-06-02T23:00:00Z,27.8903,-94.0367,2.0,211.3697234,43.77954431,-99999.0,'11111222,11111222,99999999' 
TABS,ioos:station:wmo:42046:1,2004-06-02T23:30:00Z,27.8903,-94.0367,2.0,219.5198289,44.20528136,-99999.0,'11111222,11111222,99999999' 
TABS,ioos:station:wmo:42046:1,2004-06-03T00:00:00Z,27.8903,-94.0367,2.0,225.0643625,43.84771944,-99999.0,'11111222,11111222,99999999' 
TABS,ioos:station:wmo:42046:1,2004-06-03T00:30:00Z,27.8903,-94.0367,2.0,232.3553689,42.91391965,-99999.0,'11111222,11111222,99999999' 
TABS,ioos:station:wmo:42046:1,2004-06-03T01:00:00Z,27.8903,-94.0367,2.0,238.7036625,42.29397711,-99999.0,'11111222,11111222,99999999' 
TABS,ioos:station:wmo:42046:1,2004-06-03T01:30:00Z,27.8903,-94.0367,2.0,246.7127669,33.2376368,-99999.0,'11111222,11111222,99999999' 
TABS,ioos:station:wmo:42046:1,2004-06-03T02:00:00Z,27.8903,-94.0367,2.0,260.2391008,52.4390551,-99999.0,'11111222,11111222,99999999' 
TABS,ioos:station:wmo:42046:1,2004-06-03T02:30:00Z,27.8903,-94.0367,2.0,265.9153764,58.12761822,-99999.0,'11111222,11111222,99999999' 
TABS,ioos:station:wmo:42046:1,2004-06-03T03:00:00Z,27.8903,-94.0367,2.0,275.2251406,58.20181784,-99999.0,'11111222,11111222,99999999' 
TABS,ioos:station:wmo:42046:1,2004-06-03T03:30:00Z,27.8903,-94.0367,2.0,282.5775666,60.38912236,-99999.0,'11111222,11111222,99999999' 
TABS,ioos:station:wmo:42046:1,2004-06-03T04:00:00Z,27.8903,-94.0367,2.0,291.1981206,59.04510987,-99999.0,'11111222,11111222,99999999' 
TABS,ioos:station:wmo:42046:1,2004-06-03T04:30:00Z,27.8903,-94.0367,2.0,308.9619595,56.32953399,-99999.0,'11111222,11111222,99999999' 
TABS,ioos:station:wmo:42046:1,2004-06-03T05:00:00Z,27.8903,-94.0367,2.0,313.2836355,58.06538556,-99999.0,'11111222,11111222,99999999' 
TABS,ioos:station:wmo:42046:1,2004-06-03T05:30:00Z,27.8903,-94.0367,2.0,322.6796012,53.1276444,-99999.0,'11111222,11111222,99999999' 
TABS,ioos:station:wmo:42046:1,2004-06-03T06:00:00Z,27.8903,-94.0367,2.0,325.4445611,49.38227415,-99999.0,'11111222,11111222,99999999' 
TABS,ioos:station:wmo:42046:1,2004-06-03T06:30:00Z,27.8903,-94.0367,2.0,333.952723,50.0094641,-99999.0,'11111222,11111222,99999999' 
TABS,ioos:station:wmo:42046:1,2004-06-03T07:00:00Z,27.8903,-94.0367,2.0,338.7462855,51.30996394,-99999.0,'11111222,11111222,99999999' 
TABS,ioos:station:wmo:42046:1,2004-06-03T07:30:00Z,27.8903,-94.0367,2.0,346.0876451,49.45070374,-99999.0,'11111222,11111222,99999999' 
TABS,ioos:station:wmo:42046:1,2004-06-03T08:00:00Z,27.8903,-94.0367,2.0,353.9632862,51.53580212,-99999.0,'11111222,11111222,99999999' 
TABS,ioos:station:wmo:42046:1,2004-06-03T08:30:00Z,27.8903,-94.0367,2.0,355.9966042,51.27512945,-99999.0,'11111222,11111222,99999999' 
TABS,ioos:station:wmo:42046:1,2004-06-03T09:00:00Z,27.8903,-94.0367,2.0,1.457395516,46.79513329,-99999.0,'11111222,11111222,99999999' 
TABS,ioos:station:wmo:42046:1,2004-06-03T09:30:00Z,27.8903,-94.0367,2.0,6.300825164,46.38014769,-99999.0,'11111222,11111222,99999999' 
TABS,ioos:station:wmo:42046:1,2004-06-03T10:00:00Z,27.8903,-94.0367,2.0,14.86308691,44.71609665,-99999.0,'11111222,11111222,99999999' 
TABS,ioos:station:wmo:42046:1,2004-06-03T10:30:00Z,27.8903,-94.0367,2.0,24.47676137,43.56518105,-99999.0,'11111222,11111222,99999999' 
TABS,ioos:station:wmo:42046:1,2004-06-03T11:00:00Z,27.8903,-94.0367,2.0,36.27618904,45.73445638,-99999.0,'11111222,11111222,99999999' 
TABS,ioos:station:wmo:42046:1,2004-06-03T11:30:00Z,27.8903,-94.0367,2.0,51.59188331,48.72356001,-99999.0,'11111222,11111222,99999999' 
TABS,ioos:station:wmo:42046:1,2004-06-03T12:00:00Z,27.8903,-94.0367,2.0,64.11932636,55.41818925,-99999.0,'11111222,11111222,99999999' 
TABS,ioos:station:wmo:42046:1,2004-06-03T12:30:00Z,27.8903,-94.0367,2.0,77.52363473,61.65600052,-99999.0,'11111222,11111222,99999999' 
TABS,ioos:station:wmo:42046:1,2004-06-03T13:00:00Z,27.8903,-94.0367,2.0,88.17991546,61.08081614,-99999.0,'11111222,11111222,99999999' 
TABS,ioos:station:wmo:42046:1,2004-06-03T13:30:00Z,27.8903,-94.0367,2.0,88.6197537,66.0091524,-99999.0,'11111222,11111222,99999999' 
TABS,ioos:station:wmo:42046:1,2004-06-03T14:00:00Z,27.8903,-94.0367,2.0,94.51810834,65.5035541,-99999.0,'11111222,11111222,99999999' 
TABS,ioos:station:wmo:42046:1,2004-06-03T14:30:00Z,27.8903,-94.0367,2.0,103.4744619,60.85511318,-99999.0,'11111222,11111222,99999999' 
TABS,ioos:station:wmo:42046:1,2004-06-03T15:00:00Z,27.8903,-94.0367,2.0,112.2460812,58.37508801,-99999.0,'11111222,11111222,99999999' 
TABS,ioos:station:wmo:42046:1,2004-06-03T15:30:00Z,27.8903,-94.0367,2.0,114.9171884,58.0097035,-99999.0,'11111222,11111222,99999999' 
TABS,ioos:station:wmo:42046:1,2004-06-03T16:00:00Z,27.8903,-94.0367,2.0,113.3522534,58.73095266,-99999.0,'11111222,11111222,99999999' 
TABS,ioos:station:wmo:42046:1,2004-06-03T16:30:00Z,27.8903,-94.0367,2.0,122.5121186,56.80220858,-99999.0,'11111222,11111222,99999999' 
TABS,ioos:station:wmo:42046:1,2004-06-03T17:00:00Z,27.8903,-94.0367,2.0,133.398957,49.3541052,-99999.0,'11111222,11111222,99999999' 
TABS,ioos:station:wmo:42046:1,2004-06-03T17:30:00Z,27.8903,-94.0367,2.0,133.0993017,55.22006248,-99999.0,'11111222,11111222,99999999' 
TABS,ioos:station:wmo:42046:1,2004-06-03T18:00:00Z,27.8903,-94.0367,2.0,136.7316122,55.45542805,-99999.0,'11111222,11111222,99999999' 
TABS,ioos:station:wmo:42046:1,2004-06-03T18:30:00Z,27.8903,-94.0367,2.0,137.1710132,50.95533829,-99999.0,'11111222,11111222,99999999' 
TABS,ioos:station:wmo:42046:1,2004-06-03T19:00:00Z,27.8903,-94.0367,2.0,147.8959047,45.59163629,-99999.0,'11111222,11111222,99999999' 
TABS,ioos:station:wmo:42046:1,2004-06-03T19:30:00Z,27.8903,-94.0367,2.0,155.5801312,46.95008626,-99999.0,'11111222,11111222,99999999' 
TABS,ioos:station:wmo:42046:1,2004-06-03T20:00:00Z,27.8903,-94.0367,2.0,167.820085,43.79581829,-99999.0,'11111222,11111222,99999999' 
TABS,ioos:station:wmo:42046:1,2004-06-03T20:30:00Z,27.8903,-94.0367,2.0,174.5460125,44.40099548,-99999.0,'11111222,11111222,99999999' 
TABS,ioos:station:wmo:42046:1,2004-06-03T21:00:00Z,27.8903,-94.0367,2.0,180.993639,51.88780589,-99999.0,'11111222,11111222,99999999' 
TABS,ioos:station:wmo:42046:1,2004-06-03T21:30:00Z,27.8903,-94.0367,2.0,186.0332648,58.79569117,-99999.0,'11111222,11111222,99999999' 
TABS,ioos:station:wmo:42046:1,2004-06-03T22:00:00Z,27.8903,-94.0367,2.0,192.1483642,55.73825437,-99999.0,'11111222,11111222,99999999' 
TABS,ioos:station:wmo:42046:1,2004-06-03T22:30:00Z,27.8903,-94.0367,2.0,197.0022631,53.38328015,-99999.0,'11111222,11111222,99999999' 
TABS,ioos:station:wmo:42046:1,2004-06-03T23:00:00Z,27.8903,-94.0367,2.0,200.1131165,57.86921116,-99999.0,'11111222,11111222,99999999' 
TABS,ioos:station:wmo:42046:1,2004-06-03T23:30:00Z,27.8903,-94.0367,2.0,206.5695401,53.81321213,-99999.0,'11111222,11111222,99999999' 
TABS,ioos:station:wmo:42046:1,2004-06-04T00:00:00Z,27.8903,-94.0367,2.0,207.3572552,50.44157412,-99999.0,'11111222,11111222,99999999' 
TABS,ioos:station:wmo:42046:1,2004-06-04T00:30:00Z,27.8903,-94.0367,2.0,211.0798741,48.11745733,-99999.0,'11111222,11111222,99999999' 
TABS,ioos:station:wmo:42046:1,2004-06-04T01:00:00Z,27.8903,-94.0367,2.0,214.097646,44.4159701,-99999.0,'11111222,11111222,99999999' 
TABS,ioos:station:wmo:42046:1,2004-06-04T01:30:00Z,27.8903,-94.0367,2.0,219.4794926,42.56014685,-99999.0,'11111222,11111222,99999999' 
TABS,ioos:station:wmo:42046:1,2004-06-04T02:00:00Z,27.8903,-94.0367,2.0,224.9780224,37.4059514,-99999.0,'11111222,11111222,99999999' 
TABS,ioos:station:wmo:42046:1,2004-06-04T02:30:00Z,27.8903,-94.0367,2.0,229.2504037,36.53771887,-99999.0,'11111222,11111222,99999999' 
TABS,ioos:station:wmo:42046:1,2004-06-04T03:00:00Z,27.8903,-94.0367,2.0,236.4122093,32.51935116,-99999.0,'11111222,11111222,99999999' 
TABS,ioos:station:wmo:42046:1,2004-06-04T03:30:00Z,27.8903,-94.0367,2.0,242.6719912,31.58502177,-99999.0,'11111222,11111222,99999999' 
TABS,ioos:station:wmo:42046:1,2004-06-04T04:00:00Z,27.8903,-94.0367,2.0,254.1373821,28.39108487,-99999.0,'11111222,11111222,99999999' 
TABS,ioos:station:wmo:42046:1,2004-06-04T04:30:00Z,27.8903,-94.0367,2.0,270.0203152,28.80000174,-99999.0,'11111222,11111222,99999999' 
TABS,ioos:station:wmo:42046:1,2004-06-04T05:00:00Z,27.8903,-94.0367,2.0,285.0584432,26.52063725,-99999.0,'11111222,11111222,99999999' 
TABS,ioos:station:wmo:42046:1,2004-06-04T05:30:00Z,27.8903,-94.0367,2.0,293.011879,27.34602348,-99999.0,'11111222,11111222,99999999' 
TABS,ioos:station:wmo:42046:1,2004-06-04T06:00:00Z,27.8903,-94.0367,2.0,305.5000966,29.8605375,-99999.0,'11111222,11111222,99999999' 
TABS,ioos:station:wmo:42046:1,2004-06-04T06:30:00Z,27.8903,-94.0367,2.0,317.3923995,27.44551694,-99999.0,'11111222,11111222,99999999' 
TABS,ioos:station:wmo:42046:1,2004-06-04T07:00:00Z,27.8903,-94.0367,2.0,322.4582242,28.98199441,-99999.0,'11111222,11111222,99999999' 
TABS,ioos:station:wmo:42046:1,2004-06-04T07:30:00Z,27.8903,-94.0367,2.0,336.7469605,28.87561082,-99999.0,'11111222,11111222,99999999' 
TABS,ioos:station:wmo:42046:1,2004-06-04T08:00:00Z,27.8903,-94.0367,2.0,337.4443909,29.61540309,-99999.0,'11111222,11111222,99999999' 
TABS,ioos:station:wmo:42046:1,2004-06-04T08:30:00Z,27.8903,-94.0367,2.0,348.8929124,31.61215747,-99999.0,'11111222,11111222,99999999' 
TABS,ioos:station:wmo:42046:1,2004-06-04T09:00:00Z,27.8903,-94.0367,2.0,2.720890689,33.91823256,-99999.0,'11111222,11111222,99999999' 
TABS,ioos:station:wmo:42046:1,2004-06-04T09:30:00Z,27.8903,-94.0367,2.0,6.377563599,35.74117094,-99999.0,'11111222,11111222,99999999' 
TABS,ioos:station:wmo:42046:1,2004-06-04T10:00:00Z,27.8903,-94.0367,2.0,16.05994751,39.22063997,-99999.0,'11111222,11111222,99999999' 
TABS,ioos:station:wmo:42046:1,2004-06-04T10:30:00Z,27.8903,-94.0367,2.0,26.53082901,37.27525989,-99999.0,'11111222,11111222,99999999' 
TABS,ioos:station:wmo:42046:1,2004-06-04T11:00:00Z,27.8903,-94.0367,2.0,36.46877502,34.27084037,-99999.0,'11111222,11111222,99999999' 
TABS,ioos:station:wmo:42046:1,2004-06-04T11:30:00Z,27.8903,-94.0367,2.0,38.65406356,30.5147915,-99999.0,'11111222,11111222,99999999' 
TABS,ioos:station:wmo:42046:1,2004-06-04T12:00:00Z,27.8903,-94.0367,2.0,48.19428652,37.56330124,-99999.0,'11111222,11111222,99999999' 
TABS,ioos:station:wmo:42046:1,2004-06-04T12:30:00Z,27.8903,-94.0367,2.0,58.93183727,40.4411486,-99999.0,'11111222,11111222,99999999' 
TABS,ioos:station:wmo:42046:1,2004-06-04T13:00:00Z,27.8903,-94.0367,2.0,66.52250702,35.8694034,-99999.0,'11111222,11111222,99999999' 
TABS,ioos:station:wmo:42046:1,2004-06-04T13:30:00Z,27.8903,-94.0367,2.0,67.10051888,27.42109589,-99999.0,'11111222,11111222,99999999' 
TABS,ioos:station:wmo:42046:1,2004-06-04T14:00:00Z,27.8903,-94.0367,2.0,72.4602659,28.33746637,-99999.0,'11111222,11111222,99999999' 
TABS,ioos:station:wmo:42046:1,2004-06-04T14:30:00Z,27.8903,-94.0367,2.0,75.39187844,37.90535582,-99999.0,'11111222,11111222,99999999' 
TABS,ioos:station:wmo:42046:1,2004-06-04T15:00:00Z,27.8903,-94.0367,2.0,83.36297313,40.9242642,-99999.0,'11111222,11111222,99999999' 
TABS,ioos:station:wmo:42046:1,2004-06-04T15:30:00Z,27.8903,-94.0367,2.0,92.22334688,45.62434657,-99999.0,'11111222,11111222,99999999' 
TABS,ioos:station:wmo:42046:1,2004-06-04T16:00:00Z,27.8903,-94.0367,2.0,102.2305557,42.71960908,-99999.0,'11111222,11111222,99999999' 